DW6561 Weather Reports


time (UTC)temp
F
wind
direction
speed
knots
gust
knots
rain 1hr
in
rain 24hr
in
rain mn
in
humidity
%
barometer
mb
20260902194524 75 178 0.0 7.0 0.00 0.00 0.00 41 1007.8
20260902193014 74 132 0.9 6.1 0.00 0.00 0.00 42 1008.0
20260902191512 74 186 0.0 9.6 0.00 0.00 0.00 42 1008.2
20260902190013 73 253 1.7 7.8 0.00 0.00 0.00 42 1008.4
20260902184514 73 165 0.9 8.7 0.00 0.00 0.00 43 1008.5
20260902183011 72 158 3.5 8.7 0.00 0.00 0.00 43 1008.7
20260902181516 71 130 3.5 8.7 0.00 0.00 0.00 44 1008.7
20260902180014 68 157 0.0 6.1 0.00 0.00 0.00 50 1008.8
20260902174514 67 172 2.6 8.7 0.00 0.00 0.00 50 1008.9
20260902173024 67 162 2.6 12.2 0.00 0.00 0.00 50 1008.9
20260902171518 66 210 1.7 11.3 0.00 0.00 0.00 52 1008.9
20260902170020 66 147 4.3 12.2 0.00 0.00 0.00 52 1008.8
20260902164517 64 173 3.5 11.3 0.00 0.00 0.00 56 1008.8
20260902163018 63 194 3.5 9.6 0.00 0.00 0.00 60 1008.8
20260902161533 62 202 5.2 12.2 0.00 0.00 0.00 61 1008.8
20260902160024 61 166 3.5 9.6 0.00 0.00 0.00 65 1009.0
20260902154506 60 120 3.5 8.7 0.00 0.00 0.00 67 1009.1
20260902153003 60 200 5.2 11.3 0.00 0.00 0.00 68 1009.3
20260902151503 59 139 3.5 8.7 0.00 0.00 0.00 70 1009.2
20260902150003 58 197 4.3 8.7 0.00 0.00 0.00 71 1009.1
20260902144506 58 215 3.5 11.3 0.00 0.00 0.00 72 1008.9
20260902143003 58 196 6.1 15.6 0.00 0.00 0.00 72 1008.6
20260902141502 58 164 7.8 16.5 0.00 0.00 0.00 72 1008.2
20260902140011 57 180 6.1 15.6 0.00 0.00 0.00 72 1008.1
20260902134516 57 145 5.2 10.4 0.00 0.00 0.00 73 1008.3
20260902133014 57 102 5.2 13.9 0.00 0.00 0.00 72 1008.4
20260902131512 57 195 4.3 11.3 0.00 0.00 0.00 72 1008.1
20260902130004 57 177 3.5 12.2 0.00 0.00 0.00 73 1008.0
20260902124504 57 157 5.2 10.4 0.00 0.00 0.00 73 1007.9
20260902123006 57 204 6.1 14.8 0.00 0.00 0.00 73 1008.2
20260902121515 57 206 7.0 16.5 0.00 0.00 0.00 74 1007.9
20260902120023 58 217 4.3 10.4 0.00 0.00 0.00 73 1008.1
20260902114510 60 166 4.3 12.2 0.00 0.00 0.00 67 1008.1
20260902113008 60 161 4.3 16.5 0.00 0.00 0.00 66 1008.1
20260902111511 60 150 6.1 15.6 0.00 0.00 0.00 67 1007.7
20260902110014 59 215 7.0 13.0 0.00 0.00 0.00 68 1007.6
20260902104545 59 281 6.1 13.9 0.00 0.00 0.00 68 1007.7
20260902103027 59 163 5.2 15.6 0.00 0.00 0.00 66 1007.4
20260902101514 59 144 6.1 13.9 0.00 0.00 0.00 66 1007.3
20260902100018 60 105 7.0 15.6 0.00 0.00 0.00 64 1007.4
20260902094516 60 178 5.2 14.8 0.00 0.00 0.00 63 1007.4
20260902093033 60 188 5.2 13.9 0.00 0.00 0.00 62 1007.2
20260902091531 61 136 3.5 13.0 0.00 0.00 0.00 61 1007.3
20260902090020 61 142 4.3 7.8 0.00 0.00 0.00 62 1007.6
20260902084502 61 199 3.5 11.3 0.00 0.00 0.00 62 1007.6
20260902083006 61 229 3.5 9.6 0.00 0.00 0.00 62 1007.6
20260902081504 62 115 4.3 13.0 0.00 0.00 0.00 61 1007.4
20260902080008 62 171 5.2 12.2 0.00 0.00 0.00 58 1007.5
20260902074505 63 161 5.2 13.0 0.00 0.00 0.00 58 1007.5
20260902073004 63 149 5.2 11.3 0.00 0.00 0.00 58 1007.3
20260902071504 64 186 4.3 12.2 0.00 0.00 0.00 57 1007.2
20260902070006 64 238 4.3 12.2 0.00 0.00 0.00 55 1006.9
20260902064507 64 215 4.3 13.9 0.00 0.00 0.00 54 1007.0
20260902063003 65 240 6.1 13.0 0.00 0.00 0.00 54 1006.4
20260902061507 65 159 5.2 14.8 0.00 0.00 0.00 53 1006.3
20260902060013 66 167 6.1 19.1 0.00 0.00 0.00 51 1006.2
20260902054508 66 143 7.0 18.2 0.00 0.00 0.00 51 1006.2
20260902053003 67 175 7.0 18.2 0.00 0.00 0.00 51 1006.1
20260902051506 67 163 7.8 20.0 0.00 0.00 0.00 51 1006.0
20260902050008 68 188 7.8 16.5 0.00 0.00 0.00 50 1005.9
20260902044531 69 176 7.0 13.9 0.00 0.00 0.00 48 1005.9
20260902043013 69 169 7.0 17.4 0.00 0.00 0.00 47 1005.7
20260902041503 70 240 5.2 13.9 0.00 0.00 0.00 45 1005.5
20260902040007 71 189 7.0 14.8 0.00 0.00 0.00 42 1005.4
20260902034505 72 177 5.2 15.6 0.00 0.00 0.00 40 1005.3
20260902033004 73 206 6.1 11.3 0.00 0.00 0.00 37 1005.2
20260902031535 74 205 4.3 10.4 0.00 0.00 0.00 35 1005.4
20260902030004 75 153 5.2 9.6 0.00 0.00 0.00 34 1005.1
20260902024507 76 139 3.5 11.3 0.00 0.00 0.00 34 1005.0
20260902023015 77 175 3.5 9.6 0.00 0.00 0.00 33 1004.9
20260902021515 78 178 1.7 6.1 0.00 0.00 0.00 34 1005.0
20260902020010 80 153 0.0 2.6 0.00 0.00 0.00 35 1005.0
20260902014521 80 175 0.0 3.5 0.00 0.00 0.00 34 1005.0
20260902013011 81 173 1.7 4.3 0.00 0.00 0.00 32 1005.0
20260902011518 81 178 0.9 5.2 0.00 0.00 0.00 31 1005.0
20260902010023 81 162 0.0 4.3 0.00 0.00 0.00 33 1005.0
20260902004518 81 180 0.9 4.3 0.00 0.00 0.00 32 1005.1
20260902003011 81 167 0.9 2.6 0.00 0.00 0.00 32 1005.1
20260902001515 82 157 0.0 0.9 0.00 0.00 0.00 38 1005.1
20260902000034 83 155 0.0 2.6 0.00 0.00 0.00 37 1005.2
20260901234545 83 153 0.0 1.7 0.00 0.00 0.00 35 1005.2
20260901233024 83 130 0.0 3.5 0.00 0.00 0.00 32 1005.2
20260901231513 83 123 0.0 0.9 0.00 0.00 0.00 29 1005.3
20260901230008 83 142 0.0 3.5 0.00 0.00 0.00 29 1005.5
20260901224502 82 167 1.7 6.1 0.00 0.00 0.00 30 1005.5
20260901223003 81 172 1.7 6.1 0.00 0.00 0.00 34 1005.7
20260901221505 81 159 2.6 7.8 0.00 0.00 0.00 33 1005.9
20260901220002 81 180 2.6 7.8 0.00 0.00 0.00 34 1005.8
20260901214503 80 171 0.9 6.1 0.00 0.00 0.00 38 1005.9
20260901213003 80 161 0.9 7.0 0.00 0.00 0.00 37 1006.1
20260901211502 79 191 2.6 6.1 0.00 0.00 0.00 39 1006.2
20260901210004 78 192 0.0 5.2 0.00 0.00 0.00 41 1006.4
20260901204503 77 268 0.0 2.6 0.00 0.00 0.00 44 1006.7
20260901203003 77 203 0.0 7.0 0.00 0.00 0.00 43 1006.8
20260901201509 75 155 3.5 7.8 0.00 0.00 0.00 45 1007.0
20260901200003 73 200 0.0 5.2 0.00 0.00 0.00 50 1007.3